Regional Weather Roundup
Issued by NWS

Current Version | Previous Version | Text Only | Print | Product List | Glossary On
Versions: 1 2 3 4 5 6 7 8 9 10 11 12 13 14 15 16 17 18 19 20 21 22 23 24 25 26 27 28 29 30 31 32 33 34 35 36 37 38 39 40 41 42 43 44 45 46 47 48 49 50
000
ASUS43 KLMK 221410
RWRKY
KENTUCKY REGIONAL WEATHER ROUNDUP
NATIONAL WEATHER SERVICE LOUISVILLE KY
1000 AM EDT THU JUN 22 2017

NOTE "FAIR" INDICATES FEW OR NO CLOUDS BELOW 12,000 FEET
WITH NO SIGNIFICANT WEATHER AND/OR OBSTRUCTIONS TO VISIBILITY.

KYZ001>023-026-027-061>063-070>075-221500-
WESTERN AND SOUTH CENTRAL KENTUCKY

CITY           SKY/WX    TMP DP  RH WIND       PRES   REMARKS
PADUCAH        CLOUDY    77  69  76 SE12G20   29.92F
HENDERSON      CLOUDY    78  70  76 S12       29.97S
OWENSBORO      PTSUNNY   78  69  73 S18G24    29.98S
HOPKINSVILLE   LGT RAIN  72  72 100 SE9       29.98F FOG
BOWLING GREEN  LGT RAIN  75  71  87 S8        30.04R
GLASGOW        LGT RAIN  73  67  82 S5        30.05R
$$

KYZ024-025-028>034-038-045-046-053-221500-
NORTH CENTRAL KENTUCKY

CITY           SKY/WX    TMP DP  RH WIND       PRES   REMARKS
LOUISVILLE/SDF CLOUDY    78  69  73 S13       30.02R
LOUISVILLE/LOU CLOUDY    78  70  76 S7        30.02S
FORT KNOX      CLOUDY    77  68  74 S9        30.02R
$$

KYZ035>037-039>044-047>052-055>060-089>105-221500-
NORTHEAST KENTUCKY

CITY           SKY/WX    TMP DP  RH WIND       PRES   REMARKS
LEXINGTON      CLOUDY    77  67  71 S10       30.06S
COVINGTON      PTSUNNY   76  69  79 SW8       30.03R
FRANKFORT      CLOUDY    77  67  71 S7        30.04S
$$

KYZ054-064>069-076>088-106>120-221500-
SOUTHEAST KENTUCKY

CITY           SKY/WX    TMP DP  RH WIND       PRES   REMARKS
JACKSON        PTSUNNY   75  68  78 CALM      30.11R
LONDON         LGT RAIN  71  67  87 S6        30.11R
SOMERSET       CLOUDY    72  70  94 CALM      30.11R
MIDDLESBORO    CLOUDY    70  70  98 CALM      30.14S
MONTICELLO     CLOUDY    73  68  84 E8        30.11S
$$





USA.gov is the U.S. government's official web portal to all federal, state and local government web resources and services.